When you browse on this site, cookies collect data to enhance your experience and personalize the content and advertising you see.
Visit our Privacy Policy to learn more. By continuing to use the site, you agree to this use of cookies and data.
  • In Latvia
  • List of Countries
  • For 7 days
  • Water Temperature
  • Satellite Maps
  • Weather Map
  • Weather Widgets
  • user-avatar
    Login

    Hourly Weather Etchmiadzin

    Today, 19 April, Friday

    Time Temperature Precipitation Wind Pressure Humidity
    00:00 +10°C° 0.1 mm 1 mps 683 mmHg 52%
    01:00 +10°C° 0.1 mm 1 mps 683 mmHg 54%
    02:00 +10°C° 0.1 mm 1 mps 683 mmHg 55%
    03:00 +8°C° 0 mm 2 mps 682 mmHg 57%
    04:00 +8°C° 0.1 mm 2 mps 682 mmHg 58%
    05:00 +8°C° 0.1 mm 2 mps 682 mmHg 59%
    06:00 +9°C° 0.1 mm 1 mps 682 mmHg 59%
    07:00 +10°C° 0.1 mm 1 mps 682 mmHg 54%
    08:00 +12°C° 0.1 mm 1 mps 682 mmHg 49%
    09:00 +13°C° 0 mm 1 mps 681 mmHg 44%
    10:00 +14°C° 0.1 mm 1 mps 681 mmHg 41%
    11:00 +15°C° 0.1 mm 1 mps 681 mmHg 38%
    12:00 +15°C° 0.1 mm 2 mps 681 mmHg 35%
    13:00 +15°C° 0.1 mm 2 mps 681 mmHg 35%
    14:00 +16°C° 0.1 mm 2 mps 681 mmHg 34%
    15:00 +16°C° 0.1 mm 2 mps 680 mmHg 34%
    16:00 +15°C° 0.1 mm 2 mps 680 mmHg 35%
    17:00 +14°C° 0.1 mm 2 mps 680 mmHg 37%
    18:00 +14°C° 0.1 mm 2 mps 680 mmHg 38%
    19:00 +13°C° 0.1 mm 2 mps 681 mmHg 41%
    20:00 +12°C° 0.1 mm 2 mps 681 mmHg 44%
    21:00 +12°C° 0.1 mm 2 mps 681 mmHg 47%
    22:00 +10°C° 0.1 mm 2 mps 681 mmHg 50%
    23:00 +10°C° 0.1 mm 2 mps 681 mmHg 52%

    Tomorrow, 20 April, Saturday

    Time Temperature Precipitation Wind Pressure Humidity
    00:00 +9°C° 0.1 mm 2 mps 681 mmHg 54%
    01:00 +9°C° 0.1 mm 2 mps 681 mmHg 55%
    02:00 +8°C° 0.1 mm 2 mps 681 mmHg 56%
    03:00 +8°C° 0.1 mm 3 mps 681 mmHg 57%
    04:00 +8°C° 0.1 mm 3 mps 681 mmHg 57%
    05:00 +7°C° 0.1 mm 3 mps 681 mmHg 57%
    06:00 +7°C° 0.1 mm 3 mps 681 mmHg 57%
    07:00 +8°C° 0.1 mm 3 mps 682 mmHg 54%
    08:00 +8°C° 0.1 mm 3 mps 682 mmHg 51%
    09:00 +9°C° 0.1 mm 3 mps 683 mmHg 48%
    10:00 +10°C° 0.1 mm 2 mps 683 mmHg 46%
    11:00 +12°C° 0.1 mm 2 mps 683 mmHg 43%
    12:00 +12°C° 0.1 mm 2 mps 683 mmHg 41%
    13:00 +13°C° 0.1 mm 1 mps 683 mmHg 40%
    14:00 +13°C° 0.1 mm 1 mps 683 mmHg 39%
    15:00 +13°C° 0.1 mm 1 mps 683 mmHg 38%
    16:00 +13°C° 0 mm 1 mps 683 mmHg 39%
    17:00 +12°C° 0 mm 1 mps 683 mmHg 40%
    18:00 +12°C° 0 mm 1 mps 683 mmHg 41%
    19:00 +10°C° 0 mm 2 mps 683 mmHg 44%
    20:00 +9°C° 0 mm 2 mps 684 mmHg 46%
    21:00 +8°C° 0 mm 2 mps 684 mmHg 49%
    22:00 +7°C° 0 mm 2 mps 684 mmHg 50%
    23:00 +7°C° 0 mm 2 mps 684 mmHg 51%

    Day after tomorrow, 21 April, Sunday

    Time Temperature Precipitation Wind Pressure Humidity
    00:00 +7°C° 0 mm 2 mps 684 mmHg 52%
    01:00 +6°C° 0 mm 2 mps 684 mmHg 53%
    02:00 +6°C° 0 mm 2 mps 684 mmHg 53%
    03:00 +6°C° 0 mm 2 mps 684 mmHg 54%
    04:00 +6°C° 0.1 mm 2 mps 684 mmHg 54%
    05:00 +6°C° 0.1 mm 2 mps 684 mmHg 55%
    06:00 +6°C° 0.1 mm 2 mps 684 mmHg 55%
    07:00 +7°C° 0.1 mm 2 mps 684 mmHg 51%
    08:00 +8°C° 0.1 mm 2 mps 684 mmHg 48%
    09:00 +10°C° 0.1 mm 2 mps 684 mmHg 45%
    10:00 +12°C° 0 mm 2 mps 684 mmHg 42%
    11:00 +12°C° 0 mm 3 mps 684 mmHg 40%
    12:00 +13°C° 0 mm 3 mps 684 mmHg 37%
    13:00 +13°C° 0 mm 3 mps 683 mmHg 37%
    14:00 +14°C° 0 mm 3 mps 683 mmHg 36%
    15:00 +14°C° 0 mm 3 mps 683 mmHg 36%
    16:00 +14°C° 0.1 mm 3 mps 683 mmHg 38%
    17:00 +13°C° 0.1 mm 4 mps 683 mmHg 41%
    18:00 +12°C° 0.1 mm 5 mps 683 mmHg 43%
    19:00 +11°C° 0.1 mm 4 mps 683 mmHg 45%
    20:00 +10°C° 0.1 mm 4 mps 684 mmHg 47%
    21:00 +8°C° 0.1 mm 4 mps 684 mmHg 50%
    22:00 +7°C° 0 mm 4 mps 684 mmHg 51%
    23:00 +7°C° 0 mm 4 mps 684 mmHg 52%

    22 April, Monday

    Time Temperature Precipitation Wind Pressure Humidity
    00:00 +8°C° 0 mm 3 mps 684 mmHg 53%
    01:00 +7°C° 0 mm 3 mps 684 mmHg 53%
    02:00 +7°C° 0 mm 3 mps 684 mmHg 54%
    03:00 +7°C° 0 mm 3 mps 684 mmHg 54%
    04:00 +7°C° 0 mm 3 mps 684 mmHg 54%
    05:00 +7°C° 0 mm 3 mps 684 mmHg 55%
    06:00 +5°C° 0 mm 3 mps 684 mmHg 55%
    07:00 +8°C° 0 mm 2 mps 684 mmHg 50%
    08:00 +9°C° 0 mm 2 mps 684 mmHg 45%
    09:00 +12°C° 0 mm 1 mps 685 mmHg 40%
    10:00 +12°C° 0 mm 2 mps 684 mmHg 38%
    11:00 +13°C° 0 mm 2 mps 684 mmHg 36%
    12:00 +14°C° 0 mm 2 mps 684 mmHg 34%
    13:00 +14°C° 0 mm 2 mps 684 mmHg 34%
    14:00 +13°C° 0 mm 3 mps 683 mmHg 35%
    15:00 +14°C° 0 mm 3 mps 683 mmHg 35%
    16:00 +13°C° 0 mm 4 mps 683 mmHg 36%
    17:00 +12°C° 0 mm 4 mps 684 mmHg 38%
    18:00 +11°C° 0 mm 4 mps 684 mmHg 40%
    19:00 +10°C° 0 mm 4 mps 684 mmHg 42%
    20:00 +10°C° 0 mm 3 mps 685 mmHg 45%
    21:00 +9°C° 0 mm 2 mps 686 mmHg 47%
    22:00 +8°C° 0.1 mm 2 mps 686 mmHg 48%
    23:00 +8°C° 0.1 mm 2 mps 686 mmHg 50%

    23 April, Tuesday

    Time Temperature Precipitation Wind Pressure Humidity
    00:00 +8°C° 0.1 mm 2 mps 686 mmHg 51%
    01:00 +7°C° 0.1 mm 2 mps 687 mmHg 53%
    02:00 +7°C° 0.1 mm 2 mps 687 mmHg 55%
    03:00 +6°C° 0.1 mm 2 mps 687 mmHg 56%
    04:00 +6°C° 0.1 mm 2 mps 687 mmHg 57%
    05:00 +6°C° 0.1 mm 2 mps 687 mmHg 57%
    06:00 +6°C° 0.1 mm 2 mps 688 mmHg 58%
    07:00 +7°C° 0.1 mm 2 mps 688 mmHg 54%
    08:00 +8°C° 0.1 mm 2 mps 688 mmHg 50%
    09:00 +9°C° 0.1 mm 2 mps 689 mmHg 46%
    10:00 +10°C° 0.1 mm 2 mps 689 mmHg 44%
    11:00 +12°C° 0.1 mm 1 mps 689 mmHg 41%
    12:00 +13°C° 0.1 mm 1 mps 689 mmHg 38%
    13:00 +14°C° 0.1 mm 1 mps 688 mmHg 38%
    14:00 +14°C° 0.1 mm 1 mps 688 mmHg 37%
    15:00 +15°C° 0.1 mm 1 mps 688 mmHg 36%
    16:00 +14°C° 0.1 mm 1 mps 689 mmHg 37%
    17:00 +14°C° 0.1 mm 1 mps 689 mmHg 38%
    18:00 +13°C° 0.1 mm 1 mps 689 mmHg 40%
    19:00 +12°C° 0.1 mm 1 mps 690 mmHg 43%
    20:00 +12°C° 0.1 mm 1 mps 690 mmHg 45%
    21:00 +11°C° 0.1 mm 1 mps 691 mmHg 48%
    22:00 +10°C° 0 mm 1 mps 691 mmHg 50%
    23:00 +9°C° 0 mm 1 mps 691 mmHg 52%

    24 April, Wednesday

    Time Temperature Precipitation Wind Pressure Humidity
    00:00 +9°C° 0 mm 1 mps 691 mmHg 54%
    01:00 +8°C° 0 mm 1 mps 691 mmHg 55%
    02:00 +8°C° 0 mm 1 mps 691 mmHg 57%
    03:00 +8°C° 0 mm 1 mps 691 mmHg 59%
    04:00 +8°C° 0 mm 1 mps 691 mmHg 60%
    05:00 +8°C° 0 mm 1 mps 692 mmHg 61%
    06:00 +8°C° 0 mm 1 mps 692 mmHg 61%
    07:00 +9°C° 0 mm 1 mps 692 mmHg 57%
    08:00 +10°C° 0 mm 1 mps 692 mmHg 52%
    09:00 +10°C° 0 mm 2 mps 692 mmHg 47%
    10:00 +12°C° 0 mm 2 mps 691 mmHg 44%
    11:00 +13°C° 0 mm 2 mps 691 mmHg 41%
    12:00 +14°C° 0 mm 2 mps 690 mmHg 38%
    13:00 +15°C° 0.1 mm 1 mps 690 mmHg 36%
    14:00 +15°C° 0.1 mm 1 mps 690 mmHg 35%
    15:00 +16°C° 0.1 mm 1 mps 689 mmHg 33%
    16:00 +15°C° 0.1 mm 1 mps 689 mmHg 35%
    17:00 +15°C° 0.1 mm 2 mps 689 mmHg 36%
    18:00 +14°C° 0.1 mm 2 mps 689 mmHg 38%
    19:00 +13°C° 0.1 mm 2 mps 690 mmHg 40%
    20:00 +12°C° 0.1 mm 1 mps 690 mmHg 43%
    21:00 +12°C° 0.1 mm 1 mps 691 mmHg 46%
    22:00 +11°C° 0 mm 1 mps 691 mmHg 48%
    23:00 +10°C° 0 mm 1 mps 691 mmHg 50%
    Show more